THOR ABLESTAR DEB, 1521

Orbit data source: Space-Track

THOR ABLESTAR DEB, 1521 is space debris in LEO originally from a launch on Fri, 13 Aug 1965 UTC launched from the Air Force Western Test Range (AFWTR). Debris objects in space refer to the collection of defunct objects orbiting the Earth. Examples of debris include non-operational satellites, rocket bodies, and fragments generated from explosions, collisions, or faulty payload assembly.

Loading next visibility...
Identifier
1521, 1965-065K
Orbit
LEO
Country
Flag of USUS
Related business
Manufacturer
NRL
Mission
Spacecraft
Bus & Motor
Unknown
Mass
Unknown
Launch date (UTC)
1965-08-13 (60 years ago)
Launch vehicle
Unknown
Launch site
Air Force Western Test Range (AFWTR)
Object type
Payload
Rocket body
Debris
Shape & HBR
Unknown shape, 0.2 m
Radar Cross Section
Small (<0.1 m²)

Expand to show TLE details & history
Last TLE update: 1 day ago

TLE from 1 day ago
0 THOR ABLESTAR DEB
1 01521U 65065K   25309.66791444  .00000046  00000-0  73385-4 0  9991
2 01521  90.0124 209.9210 0069656 168.9153 208.0266 13.33271103929621
Epoch: 2025-11-05T16:01Z
TLE epoch observation values (Epoch: 2025-11-05T16:01:47.807Z)
Latitude
16.55203°
Longitude
-75.66915°
Altitude
1,183.03 km
Speed
7.241 km/s
True Right ascension
13h 59m 40s
True Declination
16° 27' 49"
Sunlit
Object was in daylight at epoch
Visualization orbit readout
Latitude
Unknown
Longitude
Unknown
Altitude
Unknown
Speed
Unknown
Apparent Right ascension
Unknown
Apparent Declination
Unknown
Sunlit
N/A
Visualization observer readout
Local Sidereal Time
16:20:24
Azimuth
Unknown
Elevation
Unknown
Doppler factor
Unknown
Orbital elements
Apogee altitude
1,183.834 km
Perigee altitude
1,079.215 km
Semi-major axis
7,509.661 km
Eccentricity
0.00697
Inclination
90.0124°
RAAN
209.921°
Arg. of periapsis
168.9153°
True anomaly
207.65441°
Mean anomaly
208.0266°
Eccentric anomaly
207.84022°
Mean motion
3.33513 °/min
Orbital period
107.94 mins
BSTAR
0.000073385
Loading maneuver chart data...
Computing Atmospheric mass density...
Loading historical data...
Loading historical data...
Loading historical data...
Loading historical data...
Loading historical data...
Loading historical data...
Loading historical data...

Documentation

Showing up to 5 results
|